Location: Oriwa
(40.7500°S, 175.3333°E)
Time: 14:14:09
(UTC+00:00)

Cosmos 2297 Rocket - Pass Details

Date: 03 February 2023
Orbit: 838 x 844 km, 71.0° (Epoch: 30 March)

Event Time Altitude Azimuth Distance (km) Brightness Sun altitude
Rises 15:37:09 0° 200° (SSW) 3,435 5.7 -18.5°
Reaches altitude 10° 15:39:41 10° 195° (SSW) 2,493 5.0 -18.2°
Maximum altitude 15:45:18 55° 118° (ESE) 1,017 3.0 -17.4°
Drops below altitude 10° 15:50:50 10° 40° (NE) 2,461 4.6 -16.6°
Sets 15:53:19 0° 35° (NE) 3,388 5.3 -16.3°
